Flag for Belgium Weather past 2 weeks in Antwerp, Belgium

Now
37 °F

Clear.


Feels Like: 30 °F
Forecast: 37 / 45 °F
Wind: 10 mph from Southwest

Location: Antwerp / Deurne

Current Time: Mar 3, 2015 at 5:44:29 AM

Latest Report: Mar 3, 2015 at 4:50 AM


Visibility: 10 mi

Pressure: 30.04 "Hg

Humidity: 81%

Dew point: 32 °F

Location of AntwerpLocation

Historic Weather in Antwerp — Graph

°F

Antwerp temperature yesterday

Maximum temperature yesterday: 48 °F (at 11:50 AM)
Minimum temperature yesterday: 37 °F (at 1:50 PM)
Average temperature yesterday: 43 °F

Past Weeks' High & Low Weather Summary

 TemperatureHumidityPressure
High52 °F (Mar 1, 11:20 AM)100% (Feb 16, 6:50 AM)30.77 "Hg (Feb 16, 6:50 AM)
Low25 °F (Feb 16, 6:50 AM)46% (Mar 2, 5:50 PM)29.33 "Hg (Feb 23, 7:20 AM)
Average41 °F79%29.93 "Hg
* Reported Feb 16 3:20 AM — Mar 3 3:50 AM, Antwerp, Weather by CustomWeather, © 2015

Note: Actual official high and low records may vary slightly from our data, if they occured in-between our weather recording intervals... More about our weather records

Advertising

Antwerp weather history for previous 24 hours

 ConditionsComfort  
Time TempWeatherWind HumidityBarometerVisibility
3:50 AM
Tue, Mar 3
37 °FClear.8 mph87%30.04 "Hg10 mi
3:20 AM39 °FClear.9 mph81%30.04 "Hg10 mi
2:50 AM37 °FClear.8 mph81%30.04 "Hg10 mi
2:20 AM37 °FClear.8 mph81%30.04 "Hg10 mi
1:50 AM37 °FClear.8 mph81%30.04 "Hg10 mi
1:20 AM39 °FClear.8 mph75%30.04 "Hg10 mi
12:50 AM39 °FClear.8 mph75%30.04 "Hg10 mi
12:20 AM39 °FClear.8 mph75%30.01 "Hg10 mi
11:50 PM
Mon, Mar 2
39 °FClear.10 mph70%30.01 "Hg10 mi
11:20 PM41 °FClear.8 mph66%30.01 "Hg10 mi
10:50 PM41 °FClear.12 mph66%30.01 "Hg10 mi
10:20 PM41 °FClear.10 mph66%29.98 "Hg10 mi
9:50 PM41 °FClear.10 mph66%29.98 "Hg10 mi
9:20 PM41 °FClear.14 mph66%29.95 "Hg10 mi
8:50 PM41 °FClear.12 mph61%29.95 "Hg10 mi
8:20 PM41 °FClear.8 mph57%29.92 "Hg10 mi
7:50 PM43 °FPassing clouds.10 mph53%29.92 "Hg10 mi
7:20 PM43 °FPassing clouds.13 mph53%29.92 "HgN/A
6:50 PM43 °FClear.14 mph53%29.89 "Hg10 mi
6:20 PM45 °FPassing clouds.18 mph49%29.86 "HgN/A
5:50 PM45 °FPassing clouds.22 mph46%29.86 "HgN/A
5:20 PM45 °FScattered clouds.21 mph53%29.83 "HgN/A
4:50 PM45 °FScattered clouds.18 mph49%29.80 "HgN/A
4:20 PM45 °FScattered clouds.23 mph53%29.80 "HgN/A
3:50 PM45 °FScattered clouds.23 mph53%29.77 "HgN/A
3:20 PM45 °FScattered clouds.18 mph76%29.77 "HgN/A
2:50 PM41 °FBroken clouds.9 mph81%29.74 "HgN/A
2:20 PM39 °FSprinkles. Broken clouds.8 mph87%29.74 "HgN/A
1:50 PM37 °FRain showers. Broken clouds.17 mph87%29.74 "Hg2 mi
1:20 PM43 °FThunderstorms. Broken clouds.13 mph76%29.71 "Hg5 mi
12:50 PM46 °FSprinkles. Broken clouds.12 mph50%29.68 "HgN/A
12:20 PM46 °FScattered clouds.18 mph53%29.71 "HgN/A
11:50 AM48 °FScattered clouds.16 mph54%29.71 "HgN/A
11:20 AM45 °FScattered clouds.16 mph61%29.71 "HgN/A
10:50 AM45 °FScattered clouds.17 mph66%29.71 "HgN/A
10:20 AM43 °FPassing clouds.14 mph66%29.71 "HgN/A
9:50 AM43 °FPassing clouds.13 mph71%29.68 "HgN/A
9:20 AM41 °FPassing clouds.10 mph76%29.68 "HgN/A
8:50 AM41 °FPassing clouds.10 mph76%29.68 "HgN/A
8:20 AM41 °FPassing clouds.9 mph76%29.68 "HgN/A
7:50 AM39 °FPassing clouds.8 mph81%29.65 "HgN/A
7:20 AM41 °FPassing clouds.9 mph76%29.65 "HgN/A
6:50 AM41 °FPassing clouds.9 mph76%29.62 "HgN/A
6:20 AM41 °FClear.8 mph76%29.62 "Hg10 mi
5:50 AM41 °FClear.8 mph76%29.62 "Hg10 mi
5:20 AM43 °FMostly cloudy.10 mph76%29.59 "HgN/A
Weather by CustomWeather, © 2015

See weather overviewHow to use our weather pages